Regional Weather Roundup
Issued by NWS

Home | Current Version | Previous Version | Text Only | Print | Product List | Glossary On
Versions: 1 2 3 4 5 6 7 8 9 10 11 12 13 14 15 16 17 18 19 20 21 22 23 24 25 26 27 28 29 30 31 32 33 34 35 36 37 38 39 40 41 42 43 44 45 46 47 48 49 50
000
ASHW40 PHFO 222343
RWRHI

WEATHER ROUNDUP FOR HAWAII
NATIONAL WEATHER SERVICE HONOLULU HI
100 PM HST FRI AUG 22 2014

THIS IS AN AUTOMATED REPORT THAT HAS NOT BEEN QUALITY CONTROLLED.

NOTE..."FAIR" INDICATES FEW OR NO CLOUDS BELOW 12,000 FEET WITH NO
SIGNIFICANT WEATHER AND/OR OBSTRUCTIONS TO VISIBILITY.

* - THESE SITES REPORT LIMITED FIELDS

HIZ001>004-230000-
KAUAI-NIIHAU-

CITY           SKY/WX    TMP DP  RH WIND       PRES   REMARKS
LIHUE APT      MOSUNNY   83  70  64 NE14      30.04F
PORT ALLEN*      N/A     86 N/A N/A E18G25      N/A
POIPU*           N/A     84 N/A N/A NE10G20     N/A
PRINCEVILLE*   NOT AVBL
KOKOLE POINT*    N/A    N/A N/A N/A MISG        N/A
MOLOAA DAIRY*  NOT AVBL
WAIMEA HTS*      N/A     93  68  43 SW9G15      N/A  HX  97
PUU OPAE*        N/A     79  66  65 W3G10       N/A
PUU LUA*       NOT AVBL
MAKAHA RIDGE*  NOT AVBL
$$

HIZ005>011-230000-
OAHU-

CITY           SKY/WX    TMP DP  RH WIND       PRES   REMARKS
HONOLULU       PTSUNNY   86  68  54 NE21      30.00F
KALAELOA       MOSUNNY   88  67  49 NE8       30.00F HX  91
KANEOHE MCB    CLOUDY    82  71  68 NE13      30.01F
WHEELER FIELD  PTSUNNY   79  66  65 NE15G21   30.01F
BELLOWS*         N/A    N/A N/A N/A N13G18      N/A
KAHUKU*          N/A    N/A N/A N/A NE8G18      N/A
WHEELER*       NOT AVBL
WAIANAE HARBOR NOT AVBL
DILLINGHAM*      N/A     90  70  51 NE8G16      N/A  HX  95
KAHUKU TRN*      N/A     79  68  69 E9G21       N/A
KAWAILOA*      NOT AVBL
KII*             N/A     81  70  69 E16         N/A
MAKUA RANGE*     N/A     86  68  54 NE14G26     N/A
OAHU FOREST NW   N/A     66  66 100 NE18G35     N/A
SCHOFIELD BRK*   N/A     81  68  65 MISG        N/A
SCHOFIELD S*   NOT AVBL
WAIANAE VLY*     N/A     81  66  61 N8G23       N/A
KUAOKALA*        N/A     79  66  65 CALM        N/A
HONOULIUULI*   NOT AVBL
MOKUOLOE IS*     N/A    N/A N/A N/A MISG        N/A
PALEHUA*         N/A     90  68  48 CALM        N/A  HX  93
WAIAWA PHB*    NOT AVBL
$$

HIZ012>013-230000-
MOLOKAI-

CITY           SKY/WX    TMP DP  RH WIND       PRES   REMARKS
MOLOKAI AIRPT  MOSUNNY   85  70  60 NE16G28   30.00F
KALAUPAPA      NOT AVBL
MAKAPULAPAI*     N/A     88  68  51 E17G25      N/A  HX  91
MOLOKAI 1*       N/A     75  64  69 E8G28       N/A
PUU ALII*        N/A     64  61  91 E3G12       N/A
$$

HIZ016-230000-
KAHOOLAWE-

CITY           SKY/WX    TMP DP  RH WIND       PRES   REMARKS
KAHOOLAWE*       N/A     75 N/A N/A SE8G14      N/A
HAKIOAWA*      NOT AVBL
HONOKANAIA*      N/A     83  69  61 NE12G22   29.99
KANELOA*         N/A     79  70  73 E16G26    30.08
KEALIALALO*    NOT AVBL
LUA MAKIKA*    NOT AVBL
$$

HIZ014>015-230000-
LANAI-

CITY           SKY/WX    TMP DP  RH WIND       PRES   REMARKS
LANAI CITY     FAIR      84  66  54 NE25G38   30.02F HAZE
LANAI 1*         N/A     81  70  69 NE24G43     N/A
$$

HIZ017>028-230000-
MAUI-

CITY           SKY/WX    TMP DP  RH WIND       PRES   REMARKS
KAHULUI        MOSUNNY   88  67  49 NE23G29   29.99F HX  91
KAPALUA-W MAUI MOSUNNY   84  68  58 E14G25    29.99
HANA AIRPORT   PTSUNNY   81  68  65 CALM      30.02F
HANA*            N/A     82 N/A N/A N5          N/A
HALEAKALA SUMM   N/A     55  28  35 NE3G22      N/A
MAALAEA BAY*   NOT AVBL
HALEAKALA*     NOT AVBL
KAUPO GAP*       N/A     75  68  78 N5G14       N/A
KULA 1*          N/A     65  59  80 NW7G13      N/A
$$

HIZ023>026-230000-
BIG ISLAND OF HAWAII COAST AND LOWER SLOPES-

CITY           SKY/WX    TMP DP  RH WIND       PRES   REMARKS
KAILUA KONA    PTSUNNY   87  69  54 SW9       29.92F HX  91
HILO           PTSUNNY   83  69  62 N8        29.98F
HONOKAA*       NOT AVBL
KAWAIHAE MWT*    N/A     86 N/A N/A W8          N/A
KAWAIHAE*        N/A     84 N/A N/A W8          N/A
SOUTH POINT*     N/A     75 N/A N/A NE17G23     N/A
UPOLU AIRPORT*   N/A    N/A N/A N/A NE21G29     N/A
KAMUELA*       MOCLDY    77  61  57 N21       30.07S
HAKALAU*         N/A     67  60  77 NE7G13      N/A
KALOKO-HONOKO*   N/A     84  68  58 S9        29.92F
PALI 2*          N/A     75  64  69 N12G29      N/A
KEALAKOMO*       N/A     81  68  65 NE17G29     N/A
KAUPULEHU*       N/A     90  59  35 N9G22       N/A
KAPAPALA*        N/A     79  68  69 S3G16       N/A
LOWER KAHUKU*  NOT AVBL
PUHE CS*       NOT AVBL
PUHO CS*         N/A     85  69  57 SW5G10      N/A
PTA KEAMUKU*     N/A     73  59  60 NE26G38     N/A
WAIKOLOA*        N/A     86  61  42 NE20G33     N/A
$$

HIZ027>028-230000-
BIG ISLAND OF HAWAII INTERIOR AND SUMMMITS-

CITY           SKY/WX    TMP DP  RH WIND       PRES   REMARKS
BRADSHAW FIELD MOSUNNY   75  44  33 SW13G21   30.29F
MK VISITOR CEN NOT AVBL
MAUNA KEA*       N/A     50   1  13 SE18        N/A
MAUNA LOA*       N/A    N/A N/A N/A MISG        N/A
MAUNA LOA 1*     N/A    N/A N/A N/A MISG        N/A
PTA KIPUKA*      N/A     73  55  53 NW9G17      N/A
PTA RANGE 17*    N/A     75  54  46 W14G21      N/A
PTA WEST*        N/A    N/A N/A N/A NW21G29     N/A
NENE CABIN*    NOT AVBL
AHUMOA*          N/A     73  44  35 N14G21      N/A
PTA PORTABLE*  NOT AVBL
PUU MALI*      NOT AVBL
$$

HIC003-230000-
NORTHWEST ISLANDS-

CITY           SKY/WX    TMP DP  RH WIND       PRES   REMARKS
MIDWAY ISLAND  MOSUNNY   90  75  62 SW14      30.05S HX 100
MIDWAY NOS*    NOT AVBL
FRENCH FRIGATE NOT AVBL
$$

PHZ110>124-180-230000-
BUOY REPORTS

STATION/POSITION TIME  TEMP    WIND        PRES    WAVE   SWELL
                       AIR SEA DIR/SP/G            HT/PER HT/DIR
                 (UTC) (F)     (DEG/KT/KT) (MB)    (FT/S) (FT/D)
BUOY 51001       NOT AVBL
BUOY 51101       NOT AVBL
BUOY 51100       2300   78 79   50/ 14/ 17 1016.3F
BUOY 51003       2300   81 82   80/ 12/ 16 1015.1F   6/ 7   7
BUOY 51004       2213   79 80   40/ 16/ 19 1012.5F   6/ 8   3/ 90
BARBERS PT BUOY  NOT AVBL
WAIMEA BAY BUOY  2300      81                N/A     4/ 7   2/270
KAILUA BAY BUOY  2300      81                N/A     5/15   2/140
LANAI BUOY       NOT AVBL
BARBERS PT 2     2300      81                N/A     4/15   3/200
PAUWELA MAUI     2300      80                N/A     5/ 8
HILO             NOT AVBL
KANEOHE BAY BUOY 2300      80                N/A     4/ 6
HANALEI KAUAI    NOT AVBL
KAHULUI HARBOR   2300   79 81   20/ 14/ 17 1015.4F
HONOLULU HARBOR  2300   80      60/  7/ 12 1016.0F
KILO NALU        NOT AVBL
HILO HARBOR      2300   78     360/ 12/ 13 1014.7F
MOKUOLOE         2300   80 82   50/ 12/ 18 1016.5F
NAWILIWILI       2300      83                N/A
WHOTS BUOY       NOT AVBL
BUOY 51028       NOT AVBL
$$

......................KEY........................................
  SKY/WX - SKY CONDITIONS/PRESENT WEATHER
  TMP    - TEMPERATURE IN FAHRENHEIT
  DWPT   - DEWPOINT IN FAHRENHEIT
  RH     - RELATIVE HUMIDITY IN PERCENT
  WIND   - DIRECTION AND SPEED /MPH FOR ISLANDS...KTS FOR BUOYS/
  PRES   - MEAN SEA LEVEL PRESSURE IN INCHES OF HG
  VSB    - VISIBILITY IN MILES
  HX     - HEAT INDEX
  WCI    - WIND CHILL INDEX
  VRB    - VARIABLE WIND DIRECTION
  N/A    - NOT AVAILABLE


USA.gov is the U.S. government's official web portal to all federal, state and local government web resources and services.